Temp
16 16 17 18 18 18 18 18 19 19 19 18 18 18 18 17 17 16 16 15 15 14 14 13 13 13 13 13 13 12 12 12 12 12 12 12 12 12 12 12 12 12 13
16 16 16 17 17 17 17 18 18 18 18 18 18 17 16 16 15 15 15 14 14 13 13 13 13 13 13 13 13 12 12 12 12 12 10 10 11 12 12 12 12 12 12
15 15 15 16 16 17 17 17 17 17 16 16 16 16 15 14 14 14 14 14 13 13 13 13 12 12 12 12 12 12 12 11 12 12 11 10 11 11 12 12 13 12 12
14 14 15 15 15 15 15 16 16 16 16 15 15 15 14 14 13 13 13 13 12 12 12 12 11 11 11 11 12 12 11 11 11 11 11 11 11 10 11 11 12 12 12
15 14 15 15 15 15 15 15 15 15 14 14 14 14 13 12 12 12 12 12 12 11 11 11 11 11 11 10 10 11 11 10 9 10 10 10 10 10 10 10 10 10 12
15 14 14 14 14 14 14 14 14 14 13 13 13 13 13 12 13 12 12 12 12 11 11 11 11 11 11 11 10 10 10 9 9 9 9 9 10 10 10 10 10 10 10
15 14 14 14 14 14 13 13 13 13 12 13 13 12 12 12 11 11 11 11 11 11 10 10 10 10 9 9 9 10 10 10 9 9 8 8 8 8 8 8 9 9 10
15 14 14 14 13 13 13 12 12 12 12 12 12 12 11 11 11 10 10 10 9 9 9 9 8 8 8 8 8 8 8 8 8 8 8 7 7 7 7 7 7 7 8
15 14 13 13 13 12 12 12 12 11 11 11 11 10 10 10 10 10 9 8 8 8 7 7 7 7 7 7 6 6 6 6 6 5 5 5 5 5 5 5 6 6 6
14 13 13 12 12 12 12 11 11 11 10 10 10 10 10 9 8 8 8 8 7 7 6 6 6 6 5 5 5 5 5 4 4 4 4 4 4 4 4 4 4 4 4
14 13 12 12 12 11 11 10 10 10 10 10 9 9 8 8 7 7 7 6 6 6 5 5 5 4 4 4 4 4 3 2 3 3 3 3 3 3 3 3 3 4 3
14 13 12 12 11 11 10 10 9 9 9 9 8 8 7 7 7 6 6 5 5 5 5 4 4 3 3 3 2 2 1 1 1 1 1 2 1 2 2 2 3 2 2
13 12 12 11 11 10 9 9 8 8 8 8 7 7 7 6 5 5 5 5 5 5 4 4 3 3 2 2 2 0 0 0 -0 -0 -0 -0 0 0 0 1 1 1 1
13 12 11 10 9 8 8 8 8 7 7 7 7 6 5 5 4 4 4 4 4 3 3 3 2 2 2 1 0 -0 -1 -1 -2 -2 -1 -1 -2 -2 -1 -0 -1 -0 -0
11 11 10 9 8 7 7 7 7 6 6 5 5 4 4 4 3 3 3 3 3 3 2 2 2 1 1 0 -0 -1 -2 -3 -3 -2 -2 -2 -3 -3 -2 -2 -2 -2 -3
10 10 9 8 7 7 6 6 5 5 4 4 4 3 3 3 3 3 2 2 2 1 1 0 -0 -0 -1 -1 -1 -3 -3 -4 -3 -3 -2 -2 -3 -3 -4 -3 -3 -3 -3
10 9 7 6 6 6 5 4 4 4 3 3 2 2 2 2 2 2 1 1 0 -0 -0 -1 -1 -2 -2 -2 -3 -4 -4 -5 -5 -5 -5 -4 -4 -5 -4 -4 -4 -4 -4
9 7 6 6 5 5 4 4 3 2 2 2 2 1 1 1 1 0 -0 -0 -1 -1 -2 -2 -3 -3 -3 -3 -4 -5 -6 -6 -6 -6 -5 -5 -5 -5 -5 -5 -5 -5 -5
7 6 6 5 5 4 4 3 2 1 1 1 1 1 1 0 -0 -1 -1 -2 -2 -3 -3 -3 -4 -4 -4 -5 -6 -6 -6 -6 -6 -6 -6 -6 -6 -6 -5 -5 -5 -5 -5
6 6 5 5 4 3 2 1 1 1 1 1 1 -0 -1 -1 -1 -2 -3 -3 -4 -4 -4 -4 -5 -5 -6 -6 -7 -7 -7 -7 -6 -6 -6 -6 -6 -6 -6 -5 -6 -5 -4
5 5 4 3 2 1 1 0 1 1 0 0 -0 -1 -1 -2 -2 -3 -4 -4 -4 -4 -5 -5 -5 -6 -7 -8 -8 -7 -7 -7 -7 -7 -7 -7 -7 -6 -6 -6 -6 -6 -5
3 3 2 2 1 0 0 1 1 -0 -1 -1 -1 -2 -2 -3 -3 -4 -4 -4 -5 -5 -6 -6 -6 -8 -8 -8 -8 -7 -7 -7 -7 -7 -7 -7 -7 -7 -7 -7 -7 -6 -6
3 2 1 0 0 0 1 0 -1 -1 -1 -2 -2 -2 -3 -3 -4 -4 -4 -5 -6 -7 -7 -8 -9 -9 -9 -8 -8 -8 -8 -8 -7 -7 -7 -8 -8 -8 -8 -9 -8 -7 -7
2 1 1 0 0 0 -1 -2 -2 -2 -2 -2 -3 -3 -3 -4 -4 -5 -6 -7 -7 -8 -9 -9 -9 -9 -9 -9 -8 -8 -8 -8 -8 -7 -8 -8 -9 -9 -9 -10 -9 -8 -8
1 0 -0 -0 -1 -1 -1 -2 -2 -3 -3 -3 -3 -3 -4 -4 -5 -6 -6 -7 -8 -9 -9 -9 -9 -9 -9 -9 -8 -8 -8 -8 -7 -8 -9 -9 -10 -10 -10 -10 -9 -9 -8
-0 -1 -1 -1 -1 -1 -2 -2 -3 -3 -4 -4 -3 -4 -5 -6 -6 -6 -6 -7 -8 -9 -9 -9 -9 -9 -9 -9 -9 -9 -8 -8 -8 -9 -10 -11 -11 -11 -11 -10 -10 -9 -8
Height
1476 1476 1475 1472 1471 1471 1470 1469 1468 1467 1468 1469 1470 1472 1473 1475 1477 1478 1478 1478 1477 1476 1474 1471 1469 1467 1464 1461 1459 1456 1454 1451 1449 1445 1440 1436 1433 1431 1428 1426 1423 1420 1419
1476 1475 1474 1473 1472 1471 1471 1469 1468 1467 1467 1467 1468 1469 1470 1472 1474 1474 1473 1472 1472 1471 1468 1466 1463 1460 1457 1455 1452 1450 1446 1442 1443 1438 1433 1426 1423 1421 1418 1416 1413 1411 1412
1477 1477 1477 1473 1473 1472 1472 1471 1469 1468 1468 1467 1467 1468 1468 1469 1470 1470 1470 1469 1468 1466 1464 1462 1459 1456 1452 1449 1447 1444 1441 1436 1435 1433 1431 1422 1414 1412 1411 1408 1405 1402 1401
1478 1478 1477 1475 1475 1475 1475 1474 1473 1471 1470 1469 1468 1468 1468 1469 1469 1469 1469 1468 1466 1464 1462 1459 1456 1453 1449 1445 1441 1438 1435 1431 1427 1426 1422 1418 1413 1405 1395 1398 1395 1393 1389
1478 1479 1477 1477 1477 1477 1478 1477 1476 1474 1473 1471 1471 1471 1470 1470 1470 1469 1468 1467 1465 1462 1459 1456 1452 1449 1445 1442 1438 1434 1431 1428 1424 1421 1417 1412 1405 1401 1394 1383 1383 1383 1379
1477 1478 1478 1478 1478 1479 1479 1479 1477 1476 1475 1474 1473 1472 1472 1471 1470 1468 1466 1464 1462 1459 1456 1453 1450 1446 1442 1438 1433 1430 1426 1423 1419 1416 1412 1408 1403 1395 1389 1379 1372 1369 1367
1475 1478 1479 1479 1479 1479 1479 1479 1478 1477 1477 1476 1474 1473 1472 1471 1469 1467 1465 1462 1458 1455 1452 1448 1445 1441 1437 1433 1429 1425 1420 1416 1411 1408 1404 1401 1397 1393 1389 1383 1371 1367 1361
1475 1478 1478 1479 1479 1479 1479 1479 1479 1479 1478 1477 1475 1475 1473 1471 1469 1467 1464 1460 1457 1453 1449 1445 1441 1437 1432 1428 1423 1418 1414 1409 1405 1400 1397 1393 1389 1385 1380 1375 1370 1358 1352
1474 1477 1478 1479 1479 1479 1479 1480 1480 1479 1478 1477 1476 1475 1473 1470 1468 1465 1462 1458 1454 1449 1445 1441 1436 1432 1427 1422 1417 1412 1408 1403 1398 1394 1389 1385 1381 1378 1374 1370 1366 1360 1347
1473 1477 1478 1478 1478 1479 1479 1480 1480 1479 1478 1477 1475 1473 1471 1468 1465 1462 1458 1454 1449 1445 1440 1435 1431 1426 1421 1416 1412 1406 1402 1397 1392 1387 1382 1378 1374 1369 1366 1363 1359 1355 1349
1472 1475 1476 1477 1478 1479 1479 1479 1479 1479 1477 1475 1473 1471 1469 1466 1463 1459 1454 1449 1445 1441 1436 1431 1426 1421 1416 1411 1406 1402 1396 1391 1386 1382 1378 1372 1368 1362 1358 1354 1350 1344 1342
1471 1473 1475 1476 1477 1478 1478 1479 1478 1477 1475 1474 1472 1469 1466 1462 1459 1455 1451 1446 1442 1438 1433 1428 1422 1417 1411 1406 1401 1396 1391 1386 1380 1375 1371 1367 1361 1357 1352 1347 1342 1337 1331
1469 1471 1473 1475 1476 1477 1478 1478 1477 1476 1474 1472 1469 1466 1462 1458 1454 1451 1447 1443 1438 1434 1429 1423 1418 1412 1407 1401 1396 1391 1384 1379 1374 1370 1366 1361 1355 1349 1345 1340 1334 1329 1323
1467 1469 1471 1474 1475 1476 1477 1477 1476 1474 1472 1469 1465 1461 1458 1454 1451 1448 1444 1440 1435 1429 1424 1419 1413 1408 1401 1396 1390 1384 1378 1373 1369 1365 1359 1354 1349 1344 1338 1332 1327 1321 1314
1466 1468 1470 1473 1474 1476 1477 1475 1473 1471 1469 1465 1462 1458 1455 1452 1448 1444 1440 1435 1430 1426 1420 1415 1410 1404 1398 1393 1386 1379 1373 1366 1360 1357 1351 1347 1342 1338 1333 1327 1320 1314 1308
1467 1469 1471 1473 1475 1475 1474 1473 1471 1468 1466 1462 1459 1456 1452 1448 1444 1440 1435 1431 1426 1421 1416 1410 1404 1398 1393 1388 1382 1375 1368 1362 1356 1348 1342 1338 1333 1328 1323 1318 1313 1309 1303
1466 1468 1470 1472 1473 1473 1473 1471 1468 1466 1463 1460 1456 1453 1449 1445 1441 1436 1432 1427 1421 1415 1410 1405 1399 1393 1388 1382 1376 1370 1364 1357 1351 1344 1338 1331 1326 1321 1315 1307 1302 1297 1294
1465 1467 1469 1470 1471 1471 1470 1467 1466 1464 1462 1457 1453 1450 1446 1442 1437 1433 1428 1423 1417 1411 1405 1399 1394 1387 1382 1376 1369 1364 1357 1351 1345 1340 1334 1327 1320 1315 1309 1299 1291 1286 1280
1464 1466 1467 1468 1468 1467 1466 1465 1463 1462 1459 1454 1450 1447 1442 1437 1433 1428 1424 1419 1412 1406 1400 1393 1388 1382 1375 1370 1364 1358 1351 1344 1339 1334 1328 1322 1315 1309 1303 1293 1283 1275 1267
1464 1465 1465 1465 1465 1464 1463 1461 1459 1458 1455 1450 1446 1442 1439 1435 1430 1425 1419 1413 1408 1401 1394 1388 1382 1376 1369 1363 1359 1354 1347 1340 1333 1327 1320 1314 1308 1300 1294 1286 1277 1267 1260
1463 1463 1464 1463 1462 1460 1460 1458 1455 1453 1450 1447 1443 1440 1436 1430 1425 1420 1415 1409 1402 1394 1388 1382 1375 1369 1365 1359 1354 1349 1343 1336 1328 1320 1313 1305 1299 1292 1286 1279 1271 1262 1255
1461 1462 1461 1460 1458 1457 1456 1454 1451 1449 1447 1443 1439 1435 1431 1426 1421 1415 1409 1403 1396 1389 1383 1375 1368 1364 1360 1355 1349 1344 1339 1333 1325 1316 1307 1299 1293 1286 1278 1271 1263 1255 1248
1459 1459 1459 1458 1456 1454 1452 1450 1448 1445 1442 1438 1435 1431 1426 1421 1416 1410 1404 1398 1391 1385 1378 1371 1365 1358 1354 1348 1344 1338 1332 1326 1319 1311 1302 1295 1287 1278 1269 1262 1256 1248 1239
1458 1457 1456 1455 1454 1452 1450 1447 1445 1441 1437 1434 1430 1425 1420 1414 1410 1405 1399 1393 1387 1380 1374 1368 1362 1356 1349 1344 1339 1332 1325 1319 1311 1304 1295 1289 1281 1273 1265 1255 1248 1241 1235
1455 1455 1454 1454 1452 1449 1447 1444 1441 1437 1433 1429 1424 1419 1414 1409 1404 1399 1394 1388 1383 1378 1373 1367 1361 1353 1345 1341 1336 1329 1321 1315 1308 1299 1291 1282 1274 1266 1258 1251 1243 1235 1228
1453 1453 1452 1450 1448 1446 1443 1441 1437 1433 1428 1422 1418 1414 1409 1404 1398 1392 1385 1384 1378 1373 1369 1364 1358 1351 1345 1338 1331 1325 1318 1311 1304 1295 1288 1279 1272 1264 1255 1246 1237 1230 1221
Wind_Speed
7 5 5 4 4 5 7 9 8 9 11 19 25 28 30 30 29 28 29 29 28 28 30 32 33 32 33 34 37 39 39 40 39 41 41 41 42 44 45 43 43 43 42
9 10 12 13 14 13 12 9 7 7 7 5 9 17 20 22 19 19 20 19 24 26 28 28 29 30 32 32 33 35 38 41 39 41 38 29 32 35 38 38 37 38 35
13 14 15 17 17 18 17 16 14 12 11 9 5 3 6 9 11 13 14 15 16 18 20 22 23 24 25 28 29 30 32 35 34 37 38 21 20 30 37 39 42 42 41
12 14 17 18 19 20 18 16 15 15 15 11 7 6 5 4 6 9 11 13 15 15 16 17 19 20 22 23 24 23 25 28 34 33 36 39 43 31 33 33 35 44 44
12 14 16 16 17 15 14 13 13 14 15 15 15 14 13 12 9 7 7 9 10 12 14 15 17 19 20 21 22 24 25 24 29 33 35 37 43 43 42 38 34 36 44
13 13 13 13 12 11 10 10 11 12 12 11 10 10 9 9 9 11 13 16 17 19 20 21 22 23 24 25 25 25 25 26 26 28 30 32 33 34 32 35 36 41 44
14 13 12 10 9 8 8 9 9 9 9 10 11 12 12 13 14 16 19 21 24 25 26 26 27 27 28 28 29 29 28 27 27 28 29 31 32 32 33 35 41 36 39
14 13 10 8 6 5 5 6 7 8 10 12 13 13 13 15 16 18 19 21 23 24 26 27 29 30 30 30 30 30 29 29 29 29 28 29 31 30 29 31 33 38 38
16 13 10 7 5 3 2 4 5 7 10 12 13 14 15 17 20 21 22 23 25 28 30 31 33 33 33 33 32 32 32 31 30 29 29 30 32 33 32 31 30 31 35
16 13 10 9 6 3 2 3 3 6 10 12 14 16 17 18 20 22 25 27 29 30 32 32 33 33 33 32 32 32 31 30 30 33 34 34 31 32 33 35 36 35 36
15 13 12 10 8 6 4 4 3 6 10 13 15 17 19 21 23 25 27 29 30 31 32 32 33 33 33 33 33 32 29 29 35 34 33 32 29 33 36 39 39 39 34
13 13 13 11 10 8 8 6 4 7 11 13 16 19 21 24 26 27 27 29 31 32 33 34 34 34 34 34 34 33 30 35 35 34 31 30 32 36 37 39 41 40 37
15 15 14 13 12 12 9 5 6 11 14 18 21 23 25 25 25 26 29 30 31 32 33 33 34 35 35 35 34 30 35 37 35 32 32 35 37 39 39 40 39 34 32
15 17 16 16 14 11 6 4 8 12 16 20 22 23 22 22 24 26 27 28 30 31 33 33 34 35 36 36 35 35 35 36 36 36 36 39 38 39 44 42 35 35 43
18 18 18 16 12 7 2 6 11 15 19 21 21 20 21 23 25 26 28 29 30 31 32 34 34 34 34 34 35 34 35 35 41 43 45 46 42 43 35 34 36 41 42
16 16 15 13 6 1 5 11 16 19 21 20 20 21 23 24 25 27 28 30 31 32 34 35 35 37 36 35 33 31 33 38 44 48 48 46 45 41 36 32 36 37 36
16 17 13 7 3 4 11 16 20 21 19 18 19 22 24 25 27 28 30 32 34 35 36 36 36 36 36 34 32 31 34 41 42 41 43 43 40 38 39 44 43 42 38
16 14 10 5 2 10 15 17 20 18 18 19 20 22 24 26 28 30 32 33 34 35 36 37 37 37 36 34 31 32 36 38 38 38 38 39 40 42 40 44 47 48 47
13 11 7 2 11 19 23 20 17 16 17 19 21 23 26 28 30 31 32 33 34 36 36 37 37 37 37 33 32 33 35 38 38 39 38 37 40 39 40 42 46 49 49
9 7 4 10 12 12 13 13 14 17 19 22 23 24 25 28 30 31 32 33 34 36 36 37 37 36 36 36 32 32 34 37 38 41 42 42 39 41 39 43 47 46 44
9 7 8 7 10 12 12 13 16 19 21 22 23 24 26 28 29 31 31 33 36 37 38 39 40 38 36 37 32 31 33 36 39 42 44 45 42 41 44 41 41 37 38
8 6 7 10 12 12 13 16 18 19 21 23 25 26 28 29 30 31 34 36 37 37 38 39 40 38 37 37 33 32 33 33 39 42 44 42 43 44 41 39 36 36 36
9 8 11 12 10 12 15 17 18 20 22 25 27 28 30 31 31 34 36 37 37 37 37 36 35 37 40 39 35 33 33 37 38 40 36 41 43 40 40 37 34 33 37
10 11 11 10 12 13 15 17 19 21 24 27 29 31 32 34 34 35 36 36 36 36 33 34 35 39 39 37 39 39 42 41 40 37 41 45 39 34 37 35 37 38 39
11 9 9 11 12 14 16 17 20 23 26 29 31 33 34 35 36 37 37 36 34 28 30 33 35 36 37 37 35 37 39 38 38 39 43 45 38 39 39 39 41 42 43
9 8 10 12 14 15 16 18 20 24 28 31 33 34 34 35 37 39 42 38 33 29 28 28 27 30 31 32 34 35 34 35 35 38 40 38 37 38 41 42 44 46 45
Wind_Direction
78 71 61 36 355 316 304 292 300 308 292 267 260 262 267 269 272 278 285 290 292 292 292 293 294 297 296 297 297 297 296 295 296 291 293 293 290 291 291 292 290 288 286
104 91 82 80 74 65 58 47 26 353 327 315 270 262 269 274 281 285 289 286 281 285 287 290 292 294 294 294 294 297 298 297 296 290 290 288 292 292 296 296 293 293 291
106 99 92 80 75 66 56 50 43 36 33 34 26 295 273 270 276 285 289 293 296 295 296 296 297 299 302 301 302 301 300 298 297 294 284 278 279 289 292 290 291 289 285
110 102 96 87 77 70 61 53 50 48 46 38 28 35 41 15 7 342 329 317 309 307 307 308 308 309 309 309 310 306 303 302 302 303 296 293 290 278 285 283 280 288 283
123 114 103 93 83 75 63 57 55 52 51 48 50 51 54 54 44 28 4 355 346 336 332 330 329 326 325 323 318 310 306 303 303 300 300 292 287 285 272 281 283 278 285
138 127 111 101 91 82 68 52 41 51 47 44 45 42 36 25 2 352 344 341 336 333 331 329 327 323 320 318 316 311 307 306 302 299 296 295 292 292 286 276 274 274 276
153 143 131 117 101 82 61 50 43 49 45 35 28 21 13 3 357 351 346 339 335 332 330 328 326 324 321 317 314 310 308 304 301 299 298 297 297 298 300 302 301 297 292
164 159 145 127 110 85 62 46 40 44 33 21 15 6 358 353 349 345 340 335 330 327 325 323 322 321 320 318 316 313 311 309 307 304 301 301 298 298 298 297 298 300 298
176 168 153 143 143 131 81 34 17 15 9 6 2 357 352 345 342 336 330 326 326 326 325 325 325 324 324 323 321 318 317 316 315 312 307 305 305 307 309 308 306 303 300
178 170 161 166 179 198 265 306 325 350 356 351 348 345 339 334 331 328 325 325 325 326 328 328 328 327 327 326 325 323 321 318 314 313 312 313 314 312 312 313 311 307 303
183 175 171 188 205 215 218 242 289 324 334 339 338 335 331 329 327 327 328 329 330 330 330 329 328 327 326 325 325 326 324 316 316 316 316 316 318 315 314 313 312 309 306
192 187 192 197 197 209 220 237 278 321 334 335 335 334 332 328 325 326 329 331 331 331 330 330 329 329 328 325 325 324 317 318 320 321 321 317 314 316 319 319 315 312 309
201 192 195 203 208 208 209 240 315 332 340 340 336 330 324 324 327 330 330 330 330 331 331 331 332 333 332 329 328 322 316 319 319 319 317 312 317 320 322 319 315 312 305
202 196 196 194 194 201 221 293 327 339 337 330 324 321 322 325 327 328 329 330 332 332 332 333 333 332 330 330 329 324 322 321 317 316 317 316 318 317 319 318 313 300 303
191 195 192 191 197 203 294 334 329 324 324 323 322 323 327 329 329 331 333 333 332 331 330 329 327 327 327 327 325 323 322 322 314 314 315 316 314 315 313 309 299 304 310
193 192 192 195 183 185 323 326 326 327 327 324 323 325 326 328 330 331 332 331 330 330 331 331 329 328 327 325 323 320 319 316 313 314 314 313 315 320 316 307 304 304 305
201 200 195 176 165 338 336 332 328 322 317 320 325 327 329 330 332 332 332 332 332 331 331 330 328 326 324 324 320 320 317 314 315 317 317 318 322 323 317 312 311 309 304
202 192 174 165 324 337 331 328 322 316 317 322 326 328 330 331 333 333 333 332 331 329 328 327 328 325 324 324 323 322 317 317 319 321 322 321 321 317 317 315 311 309 310
186 177 182 287 331 329 327 324 316 315 318 324 330 331 332 331 331 330 330 330 328 328 329 329 327 326 325 328 326 324 322 321 322 322 319 316 313 316 316 313 311 310 307
179 194 246 307 314 323 313 315 313 315 321 328 331 331 330 328 328 328 330 329 330 328 329 327 329 329 329 330 325 325 322 320 319 317 321 319 316 317 317 315 311 310 310
201 222 281 307 323 322 316 315 319 319 323 325 325 327 327 326 327 327 329 331 331 331 331 329 327 329 331 329 327 325 323 321 318 323 321 320 321 318 316 316 312 310 310
221 267 304 315 314 314 316 316 316 318 320 324 326 326 326 326 327 328 332 332 331 330 329 329 328 330 329 329 327 325 322 320 322 319 318 322 320 317 316 315 314 315 314
263 281 304 308 313 316 311 311 316 319 323 324 324 325 325 326 329 329 328 331 333 332 331 330 324 322 326 329 328 326 325 323 321 319 320 319 320 316 318 323 319 320 326
266 290 303 305 304 306 313 318 321 322 321 321 323 326 325 326 326 327 331 332 331 330 328 324 319 320 323 326 329 327 325 325 324 327 326 323 323 322 325 328 328 330 327
286 292 295 297 308 313 318 322 321 318 319 321 325 325 324 325 324 326 328 328 327 325 318 316 317 318 320 322 323 324 323 323 324 325 323 331 331 328 328 328 328 331 331
278 278 293 304 309 312 319 322 318 318 321 323 323 322 321 321 323 324 324 325 327 322 317 316 316 317 316 321 323 323 323 324 326 324 331 329 329 327 328 326 327 331 334